Location: �clusier
(49.9361°N, 2.7869°E)
Time: 19:15:35
(UTC+00:00)

Cosmos 1452 Rocket - Pass Details

Date: 28 October 2021
Orbit: 767 x 775 km, 74.1° (Epoch: 04 December)

Event Time Altitude Azimuth Distance (km) Brightness Sun altitude
Rises 04:54:07 0° 338° (NNW) 3,266 6.5 -16.2°
Reaches altitude 10° 04:56:34 10° 344° (NNW) 2,335 5.8 -15.8°
Maximum altitude 05:01:45 52° 60° (ENE) 962 4.3 -15.0°
Drops below altitude 10° 05:06:53 10° 137° (SE) 2,318 6.7 -14.2°
Sets 05:09:19 0° 143° (SE) 3,240 7.4 -13.8°
